Tracking 19572 objects as of 23-Feb-2019
HD Live streaming from Space Station
objects crossing your sky now

DELTA 1 DEB

Track DELTA 1 DEB now!
10-day predictions


NORAD ID: 3417
Int'l Code: 1968-069D
Perigee: 1,463.4 km
Apogee: 1,566.6 km
Inclination: 101.9 °
Period: 116.2 minutes
Semi major axis: 7885 km
RCS: 0.0804 m2 (small)
Launch date: August 16, 1968
Source: United States (US)
Launch site: AIR FORCE WESTERN TEST RANGE (AFWTR)

Note: This is SATELLITE DEBRIS
aabbcc
Your satellite tracking list
Your tracking list is empty




NASA's NSSDC Master Catalog

Two Line Element Set (TLE):
1  3417U 68069D   19052.44870468 -.00000035  00000-0  73063-4 0  9994
2  3417 101.9420 348.4930 0065408 332.7527 147.0802 12.39706051592009
Source of the keplerian elements: AFSPC